Regional Weather Roundup
Issued by NWS

Home | Current Version | Previous Version | Graphics & Text | Print | Product List | Glossary On
Versions: 1 2 3 4 5 6 7 8 9 10 11 12 13 14 15 16 17 18 19 20 21 22 23 24 25 26 27 28 29 30 31 32 33 34 35 36 37 38 39 40 41 42 43 44 45 46 47 48 49 50
361
ASUS44 KJAN 211310
RWRMS

MISSISSIPPI HOURLY WEATHER ROUNDUP
NATIONAL WEATHER SERVICE JACKSON MS
800 AM CDT MON JUL 21 2014

NOTE: "FAIR: INDICATES FEW OR NO CLOUDS BELOW 12,000 FEET WITH NO
SIGNIFICANT WEATHER AND/OR OBSTRUCTIONS TO VISIBILITY.

MSZ001>002-007>008-010>013-018>021-025>028-034>036-211400-
NORTHWEST MISSISSIPPI

CITY           SKY/WX    TMP DP  RH WIND       PRES   REMARKS
CLARKSDALE     FAIR      72  72 100 CALM      30.09R
CLEVELAND      FAIR      71  71  99 CALM      30.07R
GREENWOOD      MOSUNNY   71  69  93 CALM      30.07R
GREENVILLE     SUNNY     72  69  90 CALM      30.07R
GRENADA        CLOUDY    70  70 100 CALM      30.08R
OLIVE BRANCH   SUNNY     68  66  94 CALM      30.11R
OXFORD         FAIR      68  66  94 CALM      30.10S FOG
TUNICA         SUNNY     70  70 100 N5        30.09S FOG
$$

MSZ003>006-009-014>017-022>024-029>033-037>039-211400-
NORTHEAST MISSISSIPPI

CITY           SKY/WX    TMP DP  RH WIND       PRES   REMARKS
BELMONT        FAIR      71  69  94 N3        30.08S
COLUMBUS AFB   SUNNY     72  70  95 N2        30.06S
CORINTH        FAIR      66  66 100 CALM      30.09R FOG
GOLDN TRIANGLE SUNNY     72  66  83 CALM      30.06S
STARKVILLE     FAIR      70  68  94 CALM      30.06S
TUPELO         SUNNY     71  68  90 NE7       30.08R FOG
$$

MSZ040-058-211400-
CENTRAL MISSISSIPPI

CITY           SKY/WX    TMP DP  RH WIND       PRES   REMARKS
JACKSON INTL   PTSUNNY   74  71  91 CALM      30.06R
JACKSON HAWKNS CLOUDY    73  69  87 MISG      30.07R
MERIDIAN KEY   MOSUNNY   74  69  85 NW3       30.05R
MERIDIAN NAS   MOSUNNY   73  69  87 N5        30.05S
RAYMOND        PTSUNNY   70  64  83 CALM      30.07R
VICKSBURG      CLOUDY    73  71  93 CALM      30.06R
$$

MSZ059>079-211400-
SOUTH MISSISSIPPI

CITY           SKY/WX    TMP DP  RH WIND       PRES   REMARKS
BROOKHAVEN     FAIR      72  72 100 CALM      30.08R
COLUMBIA       FAIR      72  72 100 CALM      30.04R
HATTIESBURG    FOG       74  73  97 NW5       30.05R VSB 1/2
MCCOMB         SUNNY     75  68  78 N3        30.06R
NATCHEZ        MOSUNNY   70  68  94 CALM      30.07R
PINE BELT      SUNNY     75  70  83 CALM      30.06R
$$

MSZ080>082-211400-
COASTAL MISSISSIPPI

CITY           SKY/WX    TMP DP  RH WIND       PRES   REMARKS
BAY ST LOUIS   FOG      N/A N/A N/A CALM      30.03R VSB 1/2
BILOXI         MOSUNNY   79  75  86 CALM      30.02R
PASCAGOULA     SUNNY     78  75  90 N3        30.02R
GULFPORT       SUNNY     80  75  84 NW6       30.02R
$$



USA.gov is the U.S. government's official web portal to all federal, state and local government web resources and services.